BADR-6

Last updated on Dec. 9, 2021, 12:02 a.m. UTC

1 33154U 08034B   21342.54672355  .00000144  00000+0  00000+0 0  9997
2 33154   0.0736  57.8973 0003410 240.4129   2.0115  1.00271308 49197
UTC
Height (km)
Latitude
Longitude
Inclination
Orbital Period
UTC large
Height (km)
Speed (km/s)
/
Latitude / Longitude
Inclination (degrees)
Orbital Period (minutes)
Azimuth
Elevation
Range (km)
Doppler Factor
iOS Compass Heading
iOS Angle